Tracking 18856 objects as of 12-Dec-2017
HD Live streaming from Space Station
objects crossing your sky now

COSMOS 2251 DEB

Track COSMOS 2251 DEB now!
10-day predictions


NORAD ID: 35448
Int'l Code: 1993-036AKS
Perigee: 753.6 km
Apogee: 774.7 km
Inclination: 73.9 °
Period: 100.0 minutes
Semi major axis: 7135 km
RCS: 0.0138 m2 (small)
Launch date: June 16, 1993
Source: Commonwealth of Independent States (former USSR) (CIS)
Launch site: PLESETSK MISSILE AND SPACE COMPLEX (PKMTR)

Note: This is SATELLITE DEBRIS
aabbcc
Your satellite tracking list
Your tracking list is empty




NASA's NSSDC Master Catalog

Two Line Element Set (TLE):
1 35448U 93036AKS 17344.92873869  .00000447  00000-0  14911-3 0  9990
2 35448  73.9077 168.0020 0014797 235.3277 124.6483 14.40460717451971
Source of the keplerian elements: AFSPC